TimeCST,TemperatureF,Dew PointF,Humidity,Sea Level PressureIn,VisibilityMPH,Wind Direction,Wind SpeedMPH,Gust SpeedMPH,PrecipitationIn,Events,Conditions,WindDirDegrees,DateUTC
12:53 AM,15.1,12.9,91,30.38,10.0,SW,5.8,-,N/A,,Clear,220,2013-11-10 06:53:00
1:53 AM,14.0,12.0,92,30.38,10.0,WSW,4.6,-,N/A,,Clear,250,2013-11-10 07:53:00
2:53 AM,15.1,12.9,91,30.37,10.0,Calm,Calm,-,N/A,,Clear,0,2013-11-10 08:53:00
3:53 AM,14.0,10.9,88,30.37,10.0,SW,5.8,-,N/A,,Clear,220,2013-11-10 09:53:00
4:53 AM,14.0,10.9,88,30.37,10.0,SSW,4.6,-,N/A,,Clear,210,2013-11-10 10:53:00
5:53 AM,17.1,15.1,92,30.36,10.0,SSW,4.6,-,N/A,,Clear,200,2013-11-10 11:53:00
6:53 AM,18.0,16.0,92,30.36,10.0,South,5.8,-,N/A,,Clear,190,2013-11-10 12:53:00
7:53 AM,21.0,18.0,88,30.35,10.0,South,5.8,-,N/A,,Clear,180,2013-11-10 13:53:00
8:53 AM,25.0,21.9,88,30.33,10.0,South,9.2,-,N/A,,Mostly Cloudy,170,2013-11-10 14:53:00
9:53 AM,28.0,25.0,88,30.32,10.0,South,6.9,-,N/A,,Overcast,190,2013-11-10 15:53:00
10:53 AM,35.1,27.0,72,30.30,10.0,South,12.7,-,N/A,,Overcast,190,2013-11-10 16:53:00
11:53 AM,37.9,27.0,65,30.25,10.0,South,13.8,23.0,N/A,,Scattered Clouds,190,2013-11-10 17:53:00
12:53 PM,41.0,27.0,57,30.19,10.0,South,13.8,-,N/A,,Clear,180,2013-11-10 18:53:00
1:53 PM,43.0,27.0,53,30.17,10.0,SSW,15.0,-,N/A,,Overcast,200,2013-11-10 19:53:00
2:53 PM,44.1,28.9,55,30.14,10.0,South,15.0,-,N/A,,Mostly Cloudy,180,2013-11-10 20:53:00
3:53 PM,45.0,30.0,56,30.14,10.0,SSW,8.1,-,N/A,,Mostly Cloudy,210,2013-11-10 21:53:00
4:53 PM,43.0,30.9,62,30.13,10.0,Calm,Calm,-,N/A,,Overcast,0,2013-11-10 22:53:00
5:53 PM,43.0,30.0,60,30.15,10.0,NW,13.8,-,N/A,,Overcast,320,2013-11-10 23:53:00
6:53 PM,39.0,28.9,67,30.19,10.0,North,21.9,-,N/A,,Overcast,350,2013-11-11 00:53:00
7:53 PM,35.1,27.0,72,30.20,10.0,North,23.0,31.1,N/A,,Overcast,360,2013-11-11 01:53:00
8:53 PM,33.1,27.0,78,30.24,10.0,NNE,15.0,26.5,N/A,,Overcast,20,2013-11-11 02:53:00
9:10 PM,32.0,26.6,80,30.21,10.0,North,24.2,29.9,N/A,,Overcast,10,2013-11-11 03:10:00
9:53 PM,26.1,19.9,78,30.31,10.0,NNE,21.9,26.5,N/A,,Overcast,30,2013-11-11 03:53:00
10:53 PM,24.1,18.0,77,30.34,10.0,NNE,19.6,27.6,N/A,,Overcast,20,2013-11-11 04:53:00
11:09 PM,23.0,17.6,80,30.28,9.0,NE,20.7,26.5,0.00,Snow,Light Snow,40,2013-11-11 05:09:00
11:19 PM,23.0,17.6,80,30.28,9.0,NNE,23.0,-,0.00,,Overcast,30,2013-11-11 05:19:00
11:53 PM,21.9,14.0,72,30.35,7.0,NNE,21.9,31.1,0.00,Snow,Light Snow,30,2013-11-11 05:53:00